Newton, IA

6:31 AM CST on January 24, 2017 (GMT -0600)
Newton Municipal

Weather History for KTNU - May, 2013

Change the Weather History Date:

Thursday, May 2, 2013

  Actual Average Record
Temperature  
Mean Temperature 36 °F -  
Max Temperature 41 °F 68 °F 86 °F (1987)
Min Temperature 32 °F 42 °F 29 °F (1970)
Degree Days  
Heating Degree Days 28    
Moisture  
Dew Point 33 °F    
Average Humidity 94    
Maximum Humidity 100    
Minimum Humidity 76    
Precipitation  
Precipitation 0.66 in - - ()
Sea Level Pressure  
Sea Level Pressure 30.33 in    
Wind  
Wind Speed 23 mph (North)    
Max Wind Speed 28 mph    
Max Gust Speed 41 mph    
Visibility 4 miles    
Events Rain , Snow    
Averages and records for this station are not official NWS values.
T = Trace of Precipitation, MM = Missing Value Source: NWS Daily Summary

Daily Weather History Graph

Daily Weather History Graph

Search for Another Location

Airport or City:

Trip Planner

Search our weather history database for the weather conditions in past years. The results will help you decide how hot, cold, wet, or windy it might be!

Date:

Astronomy

May. 02, 2013 Rise Set
Actual Time 6:07 AM CDT 8:11 PM CDT
Civil Twilight 5:36 AM CDT 8:42 PM CDT
Nautical Twilight 4:59 AM CDT 9:19 PM CDT
Astronomical Twilight 4:19 AM CDT 10:00 PM CDT
Moon 2:00 AM CDT (5/2) 12:56 PM CDT (5/2)
Length of Visible Light 15h 05m
Length of Day
14h 04m
Waning Gibbous, 47% of the Moon is Illuminated
May 2
Waning Gibbous
May 9
New
May 17
First Quarter
May 24
Full
May 31
Last Quarter

Hourly Weather History & Observations

Time (CDT) Temp. Windchill Dew Point Humidity Pressure Visibility Wind Dir Wind Speed Gust Speed Precip Events Conditions
12:15 AM 41.0 °F 30.5 °F 33.8 °F 76% 30.24 in 10.0 mi North 26.5 mph 35.7 mph N/A   Overcast
12:35 AM 41.0 °F 30.5 °F 33.8 °F 76% 30.23 in 10.0 mi NNE 26.5 mph 39.1 mph N/A   Overcast
12:55 AM 41.0 °F 30.9 °F 33.8 °F 76% 30.26 in 10.0 mi North 24.2 mph 32.2 mph N/A   Overcast
1:15 AM 41.0 °F 30.9 °F 35.6 °F 81% 30.25 in 10.0 mi North 24.2 mph 34.5 mph N/A Rain Light Rain
1:35 AM 41.0 °F 32.2 °F 35.6 °F 81% 30.28 in 7.0 mi North 18.4 mph - N/A Rain Light Rain
1:55 AM 39.2 °F 28.5 °F 35.6 °F 87% 30.26 in 3.0 mi North 24.2 mph 31.1 mph 0.03 in   Overcast
2:15 AM 37.4 °F 25.6 °F 35.6 °F 93% 30.28 in 3.0 mi North 26.5 mph 34.5 mph N/A   Overcast
2:35 AM 37.4 °F 25.6 °F 37.4 °F 100% 30.26 in 8.0 mi North 26.5 mph 36.8 mph N/A Rain Light Rain
2:55 AM 37.4 °F 26.4 °F 35.6 °F 93% 30.26 in - North 23.0 mph 35.7 mph 0.09 in   Overcast
3:15 AM 37.4 °F 26.1 °F 35.6 °F 93% 30.25 in 10.0 mi North 24.2 mph 41.4 mph N/A   Overcast
3:35 AM 37.4 °F 26.1 °F 35.6 °F 93% 30.29 in 10.0 mi North 24.2 mph 33.4 mph N/A   Overcast
3:55 AM 37.4 °F 25.9 °F 33.8 °F 87% 30.28 in 9.0 mi North 25.3 mph 38.0 mph 0.01 in Rain Light Rain
4:15 AM 37.4 °F 26.6 °F 35.6 °F 93% 30.29 in 5.0 mi North 21.9 mph 36.8 mph N/A Rain Light Rain
4:35 AM 37.4 °F 25.6 °F 35.6 °F 93% 30.28 in 4.0 mi North 26.5 mph 33.4 mph N/A Rain Light Rain
4:55 AM 37.4 °F 26.4 °F 35.6 °F 93% 30.27 in 3.0 mi NNE 23.0 mph 29.9 mph 0.06 in   Overcast
5:15 AM 37.4 °F 25.9 °F 35.6 °F 93% 30.29 in 7.0 mi North 25.3 mph 33.4 mph N/A Rain Light Rain
5:35 AM 35.6 °F 23.4 °F 35.6 °F 100% 30.29 in 8.0 mi North 25.3 mph 33.4 mph N/A   Overcast
5:55 AM 35.6 °F 23.2 °F 33.8 °F 93% 30.29 in 7.0 mi NNE 26.5 mph 33.4 mph 0.01 in   Overcast
6:15 AM 35.6 °F 23.4 °F 35.6 °F 100% 30.30 in 6.0 mi North 25.3 mph - N/A Rain Light Rain
6:35 AM 35.6 °F 24.2 °F 33.8 °F 93% 30.33 in 2.5 mi North 21.9 mph 31.1 mph N/A   Overcast
6:55 AM 35.6 °F 23.7 °F 33.8 °F 93% 30.32 in 4.0 mi North 24.2 mph 29.9 mph 0.06 in Rain Light Rain
7:15 AM 35.6 °F 24.2 °F 33.8 °F 93% 30.33 in 6.0 mi North 21.9 mph 28.8 mph N/A Rain Light Rain
7:35 AM 35.6 °F 24.0 °F 33.8 °F 93% 30.32 in 9.0 mi North 23.0 mph 34.5 mph N/A   Overcast
7:55 AM 35.6 °F 24.2 °F 33.8 °F 93% 30.35 in 10.0 mi North 21.9 mph 33.4 mph N/A   Overcast
8:15 AM 35.6 °F 24.0 °F 33.8 °F 93% 30.36 in 10.0 mi North 23.0 mph 32.2 mph N/A   Overcast
8:35 AM 35.6 °F 23.4 °F 33.8 °F 93% 30.35 in 3.0 mi North 25.3 mph 33.4 mph N/A Rain Light Rain
8:55 AM 35.6 °F 23.0 °F 33.8 °F 93% 30.34 in 5.0 mi North 27.6 mph 38.0 mph 0.02 in   Overcast
9:15 AM 35.6 °F 24.0 °F 33.8 °F 93% 30.36 in 5.0 mi North 23.0 mph 31.1 mph N/A Rain Light Rain
9:35 AM 35.6 °F 24.2 °F 33.8 °F 93% 30.36 in 8.0 mi North 21.9 mph 34.5 mph N/A Rain Light Rain
9:55 AM 35.6 °F 24.2 °F 33.8 °F 93% 30.36 in 9.0 mi North 21.9 mph 31.1 mph 0.01 in   Overcast
10:15 AM 35.6 °F 24.5 °F 33.8 °F 93% 30.37 in 6.0 mi North 20.7 mph 29.9 mph N/A Rain Light Rain
10:35 AM 35.6 °F 23.7 °F 33.8 °F 93% 30.37 in 5.0 mi North 24.2 mph 33.4 mph N/A Rain Light Rain
10:55 AM 35.6 °F 24.8 °F 33.8 °F 93% 30.38 in 4.0 mi North 19.6 mph 32.2 mph 0.01 in   Overcast
11:15 AM 33.8 °F 20.5 °F 33.8 °F 100% 30.37 in 2.5 mi North 27.6 mph 34.5 mph N/A   Overcast
11:35 AM 33.8 °F 20.8 °F 33.8 °F 100% 30.37 in 3.0 mi North 26.5 mph 33.4 mph N/A   Mostly Cloudy
11:55 AM 33.8 °F 21.0 °F 33.8 °F 100% 30.37 in 3.0 mi North 25.3 mph 38.0 mph 0.02 in Rain Light Rain
12:15 PM 33.8 °F 21.0 °F 33.8 °F 100% 30.37 in 4.0 mi North 25.3 mph 31.1 mph N/A Rain Light Rain
12:35 PM 33.8 °F 22.5 °F 33.8 °F 100% 30.37 in 4.0 mi North 19.6 mph 34.5 mph N/A Rain Light Rain
12:55 PM 33.8 °F 22.2 °F 32.0 °F 93% 30.38 in 2.0 mi North 20.7 mph 33.4 mph 0.01 in Rain Light Rain
1:15 PM 33.8 °F 21.9 °F 32.0 °F 93% 30.37 in 0.8 mi North 21.9 mph 29.9 mph N/A Snow Light Snow
1:35 PM 33.8 °F 21.3 °F 32.0 °F 93% 30.38 in 0.5 mi North 24.2 mph 33.4 mph N/A Snow Light Snow
1:55 PM 33.8 °F 23.2 °F 32.0 °F 93% 30.39 in 0.5 mi North 17.3 mph 27.6 mph 0.04 in Snow Light Snow
2:15 PM 32.0 °F 18.6 °F 32.0 °F 100% 30.37 in - North 25.3 mph - N/A Snow Light Snow
2:35 PM 33.8 °F 21.9 °F 32.0 °F 93% 30.38 in 0.8 mi North 21.9 mph 31.1 mph N/A Snow Light Snow
2:55 PM 33.8 °F 22.5 °F 32.0 °F 93% 30.38 in 1.0 mi North 19.6 mph - 0.03 in Snow Light Snow
3:15 PM 33.8 °F 22.5 °F 32.0 °F 93% 30.38 in 0.8 mi North 19.6 mph 29.9 mph N/A Snow Light Snow
3:35 PM 33.8 °F 22.2 °F 32.0 °F 93% 30.37 in 0.8 mi North 20.7 mph 28.8 mph N/A Snow Light Snow
3:55 PM 33.8 °F 21.9 °F 32.0 °F 93% 30.35 in 1.0 mi North 21.9 mph 29.9 mph 0.02 in Snow Light Snow
4:15 PM 33.8 °F 22.5 °F 32.0 °F 93% 30.34 in 1.2 mi North 19.6 mph 29.9 mph N/A Snow Light Snow
4:35 PM 33.8 °F 22.8 °F 32.0 °F 93% 30.35 in 0.8 mi North 18.4 mph - N/A Snow Light Snow
4:55 PM 33.8 °F 23.2 °F 32.0 °F 93% 30.35 in 0.5 mi North 17.3 mph 26.5 mph 0.01 in Snow Light Snow
5:15 PM 32.0 °F 21.2 °F 32.0 °F 100% 30.35 in 0.5 mi North 16.1 mph 21.9 mph N/A Snow Light Snow
5:35 PM 32.0 °F 20.8 °F 32.0 °F 100% 30.34 in 0.2 mi North 17.3 mph 24.2 mph N/A Snow Light Snow
5:55 PM 32.0 °F 22.1 °F 32.0 °F 100% 30.36 in 0.2 mi North 13.8 mph 25.3 mph 0.02 in Snow Light Snow
6:15 PM 32.0 °F 21.6 °F 32.0 °F 100% 30.35 in 0.2 mi North 15.0 mph - N/A Snow Light Snow
6:35 PM 32.0 °F 21.2 °F 32.0 °F 100% 30.35 in 0.2 mi North 16.1 mph 23.0 mph N/A Snow Light Snow
6:55 PM 32.0 °F 20.8 °F 32.0 °F 100% 30.35 in 0.5 mi North 17.3 mph - 0.04 in Snow Light Snow
7:15 PM 32.0 °F 20.8 °F 32.0 °F 100% 30.35 in 0.8 mi North 17.3 mph 25.3 mph N/A Snow Light Snow
7:35 PM 32.0 °F 22.1 °F 32.0 °F 100% 30.36 in 1.0 mi North 13.8 mph - N/A Snow Light Snow
7:55 PM 32.0 °F 20.1 °F 32.0 °F 100% 30.34 in 0.2 mi North 19.6 mph - 0.03 in Snow Light Snow
8:15 PM 32.0 °F 20.1 °F 32.0 °F 100% 30.33 in 0.2 mi North 19.6 mph 26.5 mph N/A Snow Light Snow
8:35 PM 32.0 °F 19.8 °F 32.0 °F 100% 30.33 in 0.8 mi North 20.7 mph 29.9 mph N/A Snow Light Snow
8:55 PM 32.0 °F 19.2 °F 32.0 °F 100% 30.33 in 0.8 mi North 23.0 mph 36.8 mph 0.02 in Snow Light Snow
9:15 PM 33.8 °F 21.6 °F 32.0 °F 93% 30.33 in 1.2 mi North 23.0 mph 29.9 mph N/A Snow Light Snow
9:35 PM 32.0 °F 18.9 °F 32.0 °F 100% 30.32 in 1.2 mi North 24.2 mph 32.2 mph N/A Snow Light Snow
9:55 PM 33.8 °F 21.3 °F 32.0 °F 93% 30.31 in 1.2 mi North 24.2 mph 33.4 mph 0.05 in Snow Light Snow
10:15 PM 33.8 °F 22.5 °F 32.0 °F 93% 30.33 in 1.8 mi North 19.6 mph 27.6 mph N/A Snow Light Snow
10:35 PM 33.8 °F 22.5 °F 32.0 °F 93% 30.33 in 2.0 mi North 19.6 mph 31.1 mph N/A Snow Light Snow
10:55 PM 33.8 °F 22.2 °F 32.0 °F 93% 30.31 in 1.8 mi North 20.7 mph 27.6 mph 0.04 in Snow Light Snow
11:15 PM 33.8 °F 22.2 °F 32.0 °F 93% 30.29 in 1.2 mi North 20.7 mph 29.9 mph N/A Snow Light Snow
11:35 PM 33.8 °F 22.2 °F 32.0 °F 93% 30.30 in 1.2 mi North 20.7 mph 26.5 mph N/A Snow Light Snow
11:55 PM 33.8 °F 21.9 °F 32.0 °F 93% 30.28 in 2.5 mi North 21.9 mph 27.6 mph 0.03 in   Overcast